Location: Chuathbaluk
(61.5726°N, 159.2454°W)
Time: 17:38:09
(UTC+00:00)

NOAA 15 - Pass Details

Date: 21 January 2021
Orbit: 798 x 812 km, 98.7° (Epoch: 05 March)

Event Time Altitude Azimuth Distance (km) Brightness Sun altitude
Rises 04:01:43 0° 140° (SE) 3,307 7.6 -12.0°
Reaches altitude 10° 04:04:04 10° 135° (SE) 2,382 6.8 -12.3°
Maximum altitude 04:09:10 53° 60° (ENE) 988 4.7 -12.9°
Drops below altitude 10° 04:14:19 10° 345° (NNW) 2,404 7.1 -13.5°
Sets 04:16:43 0° 341° (NNW) 3,341 7.8 -13.7°
